DateTimeUTC,F1_A11,F1_S11,BsB_S11,BsG_S11,BsR_S11,BbsB_S11,BbsG_S11,BbsR_S11,BaB_A11,BaG_A11,BaR_A11,Tu_S11,T_S11,Uu_S11,U_S11,P_S11,T1_A11
2021-09-08T12:00:00Z,00000200,21000000,,,,,,,0000.08,-000.04,0000.42,18.1,24.8,,00.0,0662.4,31.0
2021-09-08T12:01:00Z,00000200,21000000,,,,,,,-000.09,-000.16,-000.27,18.1,24.8,,00.0,0662.4,31.0
2021-09-08T12:02:00Z,00000200,21000000,,,,,,,-000.24,-000.19,-000.17,18.1,24.8,,00.0,0662.4,31.0
2021-09-08T12:03:00Z,00000200,61000000,,,,,,,0000.28,0000.25,0000.23,18.2,24.9,,00.0,0662.4,31.0
2021-09-08T12:04:00Z,00000200,41000000,0000.09,0000.65,0000.42,0000.23,-000.01,-000.25,-000.37,-000.27,-000.45,18.6,24.8,,00.0,0663.3,31.0
2021-09-08T12:05:00Z,00000200,01000000,0000.90,0000.76,-000.07,-000.03,0000.35,-000.01,0000.31,0000.38,0000.11,18.6,24.8,,00.0,0663.4,31.0
2021-09-08T12:06:00Z,00000200,01000000,0000.52,0000.73,0000.61,0000.02,0000.19,0000.03,0000.14,-000.01,0000.10,18.5,24.8,,00.0,0663.3,31.0
2021-09-08T12:07:00Z,00000200,01000000,0000.97,0000.43,0000.43,-000.03,0000.19,0000.12,-000.61,-000.12,-000.15,18.5,24.7,,00.0,0663.3,31.0
2021-09-08T12:08:00Z,00000200,01000000,0000.32,0000.84,0000.41,0000.25,-000.19,-000.16,0000.40,-000.06,0000.11,18.4,24.7,,00.0,0663.3,30.9
2021-09-08T12:09:00Z,00000200,01000000,0000.55,0000.40,0000.46,0001.18,0000.06,0000.13,0000.23,0000.27,0000.10,18.4,24.7,,00.0,0663.3,30.9
2021-09-08T12:10:00Z,00000200,01000000,-000.01,0000.17,0000.15,0000.19,0000.44,-000.09,-000.09,0000.13,0000.14,18.3,24.7,,00.0,0663.2,30.9
2021-09-08T12:11:00Z,00000200,01000000,0000.22,0000.56,0000.45,0000.37,-000.11,0000.27,0000.77,0000.03,0000.24,18.3,24.6,,00.0,0663.2,30.9
2021-09-08T12:12:00Z,00000200,01000000,-000.07,0000.77,0000.51,-000.26,0000.02,0000.01,0000.03,0000.46,0000.25,18.4,24.6,,00.0,0663.2,30.9
2021-09-08T12:13:00Z,00000200,01000000,-000.13,0000.81,0000.23,0000.09,-000.03,0000.03,0000.51,0000.59,0000.57,18.5,24.7,,00.0,0663.3,30.9
2021-09-08T12:14:00Z,00000200,01000000,0001.09,0000.67,0000.53,-000.00,0000.28,0000.05,0000.39,0000.52,0000.10,18.6,24.7,,00.0,0663.3,31.0
2021-09-08T12:15:00Z,00000200,01000000,0000.37,0000.53,0000.76,0000.42,0000.23,0000.09,0000.26,0000.32,0000.24,18.7,24.8,,00.0,0663.2,31.0
2021-09-08T12:16:00Z,00000200,01000000,0000.45,0000.62,0000.57,-000.26,0000.12,-000.07,0000.11,-000.45,0000.20,18.7,24.8,,00.0,0663.2,31.0
2021-09-08T12:17:00Z,00000200,01000000,-000.09,0000.71,0000.60,-000.13,0000.32,0000.25,0000.30,0000.68,0000.27,18.8,24.8,,00.0,0663.2,31.0
2021-09-08T12:18:00Z,00000200,01000000,0001.19,0000.55,0000.58,0000.35,0000.13,0000.21,-000.08,0000.02,-000.19,18.8,24.8,,00.0,0663.2,31.0
2021-09-08T12:19:00Z,00000200,01000000,0000.69,0000.65,0000.15,0000.28,-000.00,-000.21,0000.32,0000.29,0000.08,18.7,24.8,,00.0,0663.2,31.0
2021-09-08T12:20:00Z,00000200,01000000,0001.23,0000.55,0000.09,0000.59,0000.30,-000.40,0000.14,0000.09,0000.49,18.7,24.8,,00.0,0663.2,31.0
2021-09-08T12:21:00Z,00000200,01000000,0000.11,0001.00,0000.18,-000.37,0000.01,-000.37,0000.21,-000.11,-000.04,18.6,24.8,,00.0,0663.2,31.0
2021-09-08T12:22:00Z,00000200,01000000,0000.64,0000.86,0000.60,0000.78,0000.25,0000.46,0000.37,0000.48,0000.27,18.6,24.8,,00.0,0663.2,30.9
2021-09-08T12:23:00Z,00000200,01000000,0000.25,0000.63,0000.72,0000.18,-000.01,0000.16,0000.28,0000.47,-000.02,18.5,24.8,,00.0,0663.2,31.0
2021-09-08T12:24:00Z,00000200,01000000,0001.02,0000.43,0000.57,0000.18,-000.09,-000.09,-000.01,-000.36,0000.13,18.5,24.7,00.0,00.0,0663.2,30.9
2021-09-08T12:25:00Z,00000200,01000000,0000.54,0000.88,0000.06,0000.37,0000.16,-000.03,0000.40,0000.26,0000.27,18.4,24.7,,00.0,0663.2,30.9
2021-09-08T12:26:00Z,00000200,01000000,0000.64,0000.86,0000.57,0000.67,0000.34,0000.07,0000.11,0000.22,0000.14,18.4,24.7,,00.0,0663.2,30.9
2021-09-08T12:27:00Z,00000200,01000000,0000.65,0000.67,0000.16,0000.06,0000.21,-000.18,0000.31,0000.45,-000.02,18.5,24.7,,00.0,0663.2,31.0
2021-09-08T12:28:00Z,00000200,01000000,0001.12,0001.12,0000.59,0000.72,0000.31,0000.07,0000.62,0000.36,0000.52,18.6,24.7,,00.0,0663.2,31.0
2021-09-08T12:29:00Z,00000200,01000000,0000.43,0001.03,0000.43,-000.14,0000.02,0000.38,-000.16,-000.06,0000.09,18.7,24.8,,00.0,0663.2,31.0
2021-09-08T12:30:00Z,00000200,01000000,0000.43,0000.70,0000.90,0000.19,0000.50,0000.40,0000.16,0000.39,0000.07,18.8,24.8,,00.0,0663.2,31.0
2021-09-08T12:31:00Z,00000200,01000000,0000.27,0000.78,0000.62,0000.29,0000.04,-000.11,0000.28,0000.28,0000.11,18.9,24.9,,00.0,0663.2,31.0
2021-09-08T12:32:00Z,00000200,01000000,0001.28,0000.61,0000.55,0000.06,0000.48,0000.11,0000.32,-000.01,0000.25,18.9,24.9,,00.0,0663.2,31.0
2021-09-08T12:33:00Z,00000200,01000000,0000.39,0000.39,0000.36,0000.19,0000.13,-000.13,0000.14,0000.16,-000.03,18.9,24.9,,00.0,0663.2,31.0
2021-09-08T12:34:00Z,00000200,01000000,0000.85,0000.70,0000.62,0000.22,0000.09,0000.17,-000.29,0000.17,-000.27,18.9,24.9,,00.0,0663.2,31.0
2021-09-08T12:35:00Z,00000200,01000000,0000.84,0001.17,0000.60,0000.06,0000.36,0000.28,0000.22,-000.07,0000.42,18.8,24.9,,00.0,0663.2,31.0
2021-09-08T12:36:00Z,00000200,01000000,0000.91,0000.92,0000.59,0000.26,0000.23,0000.09,0000.55,0000.46,0000.17,18.8,24.9,,00.0,0663.2,31.0
2021-09-08T12:37:00Z,00000200,01000000,0001.69,0000.57,0000.54,0000.95,0000.32,-000.13,0000.08,0000.18,0000.11,18.7,24.9,,00.0,0663.2,31.0
2021-09-08T12:38:00Z,00000200,01000000,0001.03,0000.80,0000.71,0000.29,0000.08,0000.07,0000.16,0000.04,0000.33,18.7,24.8,,00.0,0663.2,31.0
2021-09-08T12:39:00Z,00000200,01000000,0000.63,0001.05,0000.71,0000.37,0000.16,-000.13,0000.19,-000.04,0000.14,18.6,24.8,,00.0,0663.2,31.0
2021-09-08T12:40:00Z,00000200,01000000,0000.46,0000.64,0000.55,0000.30,0000.16,-000.09,0000.41,0000.30,0000.08,18.6,24.8,,00.0,0663.1,30.9
2021-09-08T12:41:00Z,00000200,01000000,0000.69,0000.82,0000.49,0000.79,0000.32,0000.12,-000.01,0000.33,0000.33,18.6,24.8,,00.0,0663.1,30.9
2021-09-08T12:42:00Z,00000200,01000000,0000.33,0001.01,0000.66,0000.54,0000.39,0000.36,0000.89,0000.24,0000.40,18.7,24.8,,00.0,0663.2,30.9
2021-09-08T12:43:00Z,00000200,01000000,0000.98,0000.95,0000.60,0000.30,0000.11,0000.20,0000.27,0000.43,0000.17,18.7,24.8,,00.0,0663.2,31.0
2021-09-08T12:44:00Z,00000200,01000000,0001.14,0001.05,0000.37,0000.89,0000.03,-000.18,0000.07,0000.53,0000.00,18.9,24.9,,00.0,0663.2,31.0
2021-09-08T12:45:00Z,00000200,01000000,0000.46,0000.85,0000.62,0000.24,0000.14,-000.07,0000.45,0000.28,0000.16,19.0,24.9,,00.0,0663.2,31.0
2021-09-08T12:46:00Z,00000200,01000000,0000.55,0000.96,0000.96,-000.09,0000.49,0000.14,-000.10,0000.25,0000.19,19.0,24.9,,00.0,0663.2,31.0
2021-09-08T12:47:00Z,00000200,01000000,0001.09,0001.21,0000.89,-000.06,0000.34,0000.19,0000.03,-000.41,-000.10,19.0,24.9,00.0,00.0,0663.2,31.0
2021-09-08T12:48:00Z,00000200,01000000,0001.19,0001.12,0000.59,0000.06,0000.27,-000.19,0000.49,0000.32,0000.23,18.9,24.9,,00.0,0663.2,31.0
2021-09-08T12:49:00Z,00000200,01000000,0000.73,0000.99,0000.29,0000.23,0000.23,-000.16,0000.11,0000.09,0000.20,18.9,24.9,,00.0,0663.2,31.0
2021-09-08T12:50:00Z,00000200,01000000,0000.80,0001.13,0000.31,0000.18,0000.20,-000.15,-000.22,0000.48,0000.13,18.8,24.9,,00.0,0663.1,31.0
2021-09-08T12:51:00Z,00000200,01000000,0001.10,0001.01,0000.82,0000.30,0000.07,0000.27,0000.55,0000.16,0000.19,18.8,24.9,,00.0,0663.1,31.0
2021-09-08T12:52:00Z,00000200,01000000,0001.71,0001.13,0000.78,0000.34,0000.23,0000.34,0000.17,0000.33,0000.04,18.8,24.9,00.0,00.0,0663.1,31.0
2021-09-08T12:53:00Z,00000200,01000000,0001.02,0000.94,0000.36,0000.95,0000.22,0000.02,0000.32,0000.16,0000.14,18.7,24.8,,00.0,0663.0,31.0
2021-09-08T12:54:00Z,00000200,01000000,0001.34,0000.91,0000.59,0000.57,0000.34,-000.17,-000.30,-000.22,-000.03,18.7,24.8,,00.0,0663.0,30.9
2021-09-08T12:55:00Z,00000200,01000000,0002.10,0001.03,0000.49,0000.55,0000.06,0000.03,0000.30,0000.12,0000.22,18.6,24.8,,00.0,0663.0,30.9
2021-09-08T12:56:00Z,00000200,01010000,0001.37,0001.14,0000.83,-000.37,0000.43,0000.09,0000.34,0000.54,0000.31,18.7,24.8,,00.0,0663.0,30.9
2021-09-08T12:57:00Z,00000200,41000000,,,,,,,0000.26,-000.15,-000.10,18.7,24.8,,00.0,0662.9,31.0
2021-09-08T12:58:00Z,00000200,61000000,,,,,,,-000.35,-000.12,0000.19,18.5,25.0,,00.0,0662.1,31.0
2021-09-08T12:59:00Z,00000200,21000000,,,,,,,-000.25,0000.04,-000.01,18.6,25.1,,00.0,0662.1,31.0
